712  
ASUS42 KCHS 220326  
RWRCHS  
 
REGIONAL WEATHER ROUNDUP  
NATIONAL WEATHER SERVICE CHARLESTON SC  
1100 PM EDT TUE MAY 21 2019  
 
NOTE: "FAIR" INDICATES FEW OR NO CLOUDS BELOW 12,000 FEET WITH NO  
SIGNIFICANT WEATHER AND/OR S TO VISIBILITY
.  
 
NOT ALL STATIONS ARE QUALITY CONTROLLED. USE DATA WITH CAUTION,  
ESPECIALLY DEWPOINT OBSERVATIONS.  
 
SCZ027-030-031-034>040-042>050-220400-   
..SOUTHEAST SOUTH CAROLINA
 
 
 
CITY SKY/WX TMP DP RH WIND PRES REMARKS
 
N CHARLESTON FAIR 76 73 91 S6 30.00R  
WATERFRONT PRK N/A 78 75 90 S5 29.83R  
MOUNT PLEASANT MOCLDY 75 75 100 CALM 30.01R FOG  
JOHNS ISLAND FAIR 77 75 94 S5 30.01R  
PINOPOLIS N/A 79 72 78 VRB2 29.92R  
MONCKS CORNER FAIR 73 70 88 CALM 30.00R  
SUMMERVILLE HAZE 75 70 83 CALM 30.01R VSB 1/4  
BEAUFORT MCAS FAIR 80 75 84 S3 29.99R  
BEAUFORT ARPT FAIR 77 73 88 S3 29.99R  
HILTON HEAD IS FAIR 79 73 83 S7 30.00R  
WALTERBORO FAIR 73 70 88 CALM 30.01R  
ALLENDALE FAIR 81 68 65 CALM 29.98R  
   
..SOUTHERN MIDLANDS AND PEE DEE
 
 
 
CITY SKY/WX TMP DP RH WIND PRES REMARKS
 
GEORGETOWN FAIR 72 72 100 CALM 30.02R  
KINGSTREE FAIR 77 70 78 E3 30.01R  
ORANGEBURG FAIR 77 64 64 SE5 29.99R  
BARNWELL MOCLDY 73 64 73 CALM 29.99R  
AIKEN FAIR 70 59 68 CALM 30.03R  
MANNING FAIR 72 68 88 CALM 30.00R  
COLUMBIA FAIR 77 64 64 CALM 29.98R  
SUMTER FAIR 73 62 68 CALM 29.99R  
FLORENCE FAIR 77 68 73 SE3 30.00R  
MYRTLE BEACH FAIR 77 75 93 S3 30.01R  
N MYRTLE BEACH FAIR 77 75 93 S3 30.01R  
 

 
 
GAZ063-065-086>088-099>101-113>116-118-119-134>141-150-220400-   
..SOUTHEAST GEORGIA
 
 
 
CITY SKY/WX TMP DP RH WIND PRES REMARKS
 
SAVANNAH ARPT FAIR 78 73 84 SE5 29.99R  
HUNTER AAF FAIR 77 73 86 SE3 29.96R  
FORT STEWART FAIR 76 70 81 CALM 29.97R  
STATESBORO MOCLDY 78 65 65 CALM 29.99R  
SYLVANIA FAIR 78 67 69 CALM 30.00R  
CLAXTON FAIR 79 70 73 CALM 29.98R  
MILLEN FAIR 77 67 70 SE5 29.98R  
   
..CSRA, CENTRAL AND FAR SOUTHEAST GEORGIA
 
 
 
CITY SKY/WX TMP DP RH WIND PRES REMARKS
 
THOMSON FAIR 70 65 85 MISG 29.99R  
AUGUSTA-BUSH FAIR 71 64 78 CALM 29.97R  
AUGUSTA-DANIEL FAIR 85 54 34 NE5 29.99R  
SWAINSBORO MOCLDY 82 68 61 SE7 29.99R  
VIDALIA FAIR 81 64 57 SE3 29.98R  
EASTMAN FAIR 72 69 91 CALM 29.99S  
HAZLEHURST FAIR 82 64 54 S7 29.97R  
ALMA FAIR 79 65 62 SE5 29.98R  
WAYCROSS FAIR 80 59 48 S5 29.98R  
JESUP FAIR 79 70 73 CALM 29.99R  
BAXLEY FAIR 79 64 61 SE5 29.99R  
BRUNSWICK FAIR 78 73 83 S7 29.99R  
SAINT SIMONS FAIR 80 72 76 S10 29.99R  
 

 
 
SCZ027-028-034-036>038-045-046-048>050-GAZ119-141-220400-   
..LAKE AND SUPPLEMENTAL COASTAL OBSERVATIONS
 
 
 
STATION/POSITION TIME TEMP WIND PRES WAVE SWELL
 
AIR SEA DIR/SP/G HT/PER HT/PER/DIR  
(UTC) (F) (DEG/KT/KT) (MB) (FT/S) (FT/S/D)  
WINYAH BAY 0245 78 210/ 4 1015.0R  
LAKE MURRAY 0230 79 CALM 1014.6R  
ACE BASIN NERRS 0245 78 150/ 1 1016.0R  
FORT PULASKI 0248 79 79 170/ 4/ 6 1016.0R  
SAPELO ISLAND 0300 78 180/ 8 1015.0  
 

 
 
ANZ835-935-AMZ111-154-330-350-352-354-370-450-454-472-220400-   
..C-MAN AND BUOY OBSERVATIONS
 
 
 
STATION/POSITION TIME TEMP WIND PRES WAVE SWELL
 
AIR SEA DIR/SP/G HT/PER HT/PER/DIR  
(UTC) (F) (DEG/KT/KT) (MB) (FT/S) (FT/S/D)  
BUOY 41004 0310 77 190/ 6/ 8 1016.4  
BUOY 41008 0250 78 78 180/ 12/ 16 1015.1R 2/ 4 2/100/ 7  
FOLLY BEACH CMAN 0300 77 200/ 9/ 10 1016.5R  
CAPERS NEARSHORE 0308 77 77 200/ 6/ 10 1015.8R  
FRIPP NEARSHORE 0208 78 79 190/ 12/ 16 1014.8R  
 
 
STATION/POSITION TIME TEMP WIND PRES WAVE SWELL
 
AIR SEA DIR/SP/G HT/PER HT/PER/DIR  
(UTC) (F) (DEG/KT/KT) (MB) (FT/S) (FT/S/D)  
5E ST. MARYS GA 0300 79 N/A 3/ 3  
FRYING PAN BUOY 0310 77 CALM / 2 1017.2  
BUOY 41025 NOT AVBL  
CAPE LOOKOUT NC 0300 71 50/ 18/ 21 1018.8R  
BUOY 41002 NOT AVBL  
BUOY 41010 0310 78 80 110/ 10/ 12 1017.7  
ST AUGUSTINE FL 0300 79 81 150/ 16/ 16 1016.2R  
 

 
 
 
CLICK HERE TO GO TO PREVIOUS BULLETINS.

The Nexlab SC Page
The Nexlab GA Page Main Text Page